Regional Weather Roundup
Issued by NWS

Home | Current Version | Previous Version | Text Only | Print | Product List | Glossary On
Versions: 1 2 3 4 5 6 7 8 9 10 11 12 13 14 15 16 17 18 19 20 21 22 23 24 25 26 27 28 29 30 31 32 33 34 35 36 37 38 39 40 41 42 43 44 45 46 47 48 49 50
000
ASUS43 KOAX 240710
RWRNE

WEATHER ROUNDUP FOR NEBRASKA
NATIONAL WEATHER SERVICE OMAHA NE
200 AM CDT WED AUG 24 2016

NOTES: SATELLITE DATA IS BEING USED TO AUGMENT CLOUD COVER ABOVE
       12000 FEET.
       "FAIR" INDICATES FEW OR NO CLOUDS BELOW 12,000 FEET WITH NO
       SIGNIFICANT WEATHER AND/OR OBSTRUCTIONS TO VISIBILITY.

  * THESE STATIONS DO NOT REPORT WEATHER SUCH AS RAIN...SNOW OR FOG.

NEZ001>004-019>022-054>056-240800-
NEBRASKA PANHANDLE

CITY           SKY/WX    TMP DP  RH WIND       PRES   REMARKS
SCOTTSBLUFF    MOCLDY    58  44  60 E3        30.09S
ALLIANCE       MOCLDY    50  45  83 CALM      30.09R
CHADRON        CLOUDY    50  34  54 W3        30.09R
KIMBALL        CLOUDY    60  45  57 SE5       30.15S
SIDNEY         CLOUDY    58  45  62 W5        30.13R
$$

NEZ057>060-069>072-079>082-240800-
SOUTHWEST NEBRASKA

CITY           SKY/WX    TMP DP  RH WIND       PRES   REMARKS
NORTH PLATTE   CLEAR     55  46  71 CALM      30.02R
IMPERIAL       CLOUDY    62  48  60 N9        30.05R
LEXINGTON      CLEAR     61  52  71 NW6       29.98S
MCCOOK         CLOUDY    64  49  57 CALM      29.98R
OGALLALA       CLEAR     57  43  58 NE3       30.07R
$$

NEZ005>010-023>029-035>040-094-240800-
NORTH CENTRAL NEBRASKA

CITY           SKY/WX    TMP DP  RH WIND       PRES   REMARKS
VALENTINE      CLEAR     54  41  61 NW9       30.02R
AINSWORTH      CLEAR     58  47  68 NW6       30.01R
BROKEN BOW     CLEAR     64  48  56 N9        29.97F
O`NEILL        CLEAR     62  51  65 NW8       29.95S
ORD            CLEAR     59  52  77 NW6       29.94S
THEDFORD       CLEAR     54  44  68 W3        30.04R
$$

NEZ041-046>049-061>064-073>077-083>087-240800-
SOUTH CENTRAL NEBRASKA

CITY           SKY/WX    TMP DP  RH WIND       PRES   REMARKS
GRAND ISLAND   CLEAR     68  59  73 N8        29.93S
AURORA         CLEAR     70  65  84 N8        29.91R
HASTINGS       CLEAR     69  59  70 N10       29.93R
HEBRON         PTCLDY    71  69  92 SE5       29.89R
HOLDREGE       CLOUDY    65  56  72 N7        29.95F
KEARNEY *      CLEAR     68  55  64 N8        29.94S
YORK           CLEAR     68  64  88 SE6       29.90S
$$

NEZ011>018-030>034-042>045-240800-
NORTHEAST NEBRASKA

CITY           SKY/WX    TMP DP  RH WIND       PRES   REMARKS
NORFOLK        CLEAR     67  63  87 SW7       29.90R
ALBION         CLEAR     65  59  80 CALM      29.94R
BLAIR          CLOUDY    68  65  90 SW8       29.85F
FREMONT        CLOUDY    68  65  89 SW7       29.87R
TEKAMAH        CLOUDY    69  63  81 SW9       29.86R
WAYNE          CLOUDY    69  67  90 SW7       29.87R
$$

NEZ050>053-065>068-078-088>093-240800-
SOUTHEAST NEBRASKA

CITY           SKY/WX    TMP DP  RH WIND       PRES   REMARKS
LINCOLN        PTCLDY    67  65  93 SE8       29.91R
OMAHA EPPLEY   CLOUDY    69  63  81 SE10      29.88R THUNDER
BEATRICE       CLOUDY    69  62  79 E14G20    29.93R
FALLS CITY     HVY RAIN  65  64  97 N14G22    29.99R FOG
NEBRASKA CITY  TSTM      64  64 100 S8G16     29.98R
PLATTSMOUTH    CLOUDY    65  64  94 S13       29.91S
$$

NEZ044-045-051>053-067-240800-
OMAHA AREA

CITY           SKY/WX    TMP DP  RH WIND       PRES   REMARKS
OMAHA EPPLEY   CLOUDY    69  63  81 SE10      29.88R THUNDER
BLAIR          CLOUDY    68  65  90 SW8       29.85F
FREMONT        CLOUDY    68  65  89 SW7       29.87R
MILLARD        LGT RAIN  69  64  86 E6        29.86F
OFFUTT AFB     CLOUDY    66  66 100 S8        29.90R
PLATTSMOUTH    CLOUDY    65  64  94 S13       29.91S
WAHOO          PTSUNNY   67  64  89 W5        29.89R
$$




USA.gov is the U.S. government's official web portal to all federal, state and local government web resources and services.